This demonstration page uses our WeatherBlox Daily Observations layout. Learn more.

Left ArrowRight Arrow

Hourly Observations for August 5, 2022

Temp ( °F °C ) Dew Point ( °F °C ) Humidity (%) Winds ( mph kmh ) Pressure ( in mb ) Visibility ( mi km ) Precip ( " mm )
12:52 am 00:52 Mostly Clear 78 25.6 73 22.8 85 85 SSE 9 15 29.98 1015 10 16 0.00 0.00
1:52 am 01:52 Clear 77 25 73 22.8 88 88 S 9 15 29.97 1015 10 16 0.00 0.00
2:52 am 02:52 Clear 75 23.9 73 22.8 94 94 S 7 11 29.96 1015 10 16 0.00 0.00
3:52 am 03:52 Clear 75 23.9 73 22.8 94 94 S 5 7 29.97 1015 10 16 0.00 0.00
4:52 am 04:52 Clear 74 23.3 73 22.8 97 97 S 3 6 29.98 1015 10 16 0.00 0.00
5:52 am 05:52 Clear 74 23.3 72 22.2 94 94 SSE 5 7 29.99 1016 10 16 0.00 0.00
6:52 am 06:52 Sunny 74 23.3 73 22.8 97 97 S 6 9 30.00 1016 10 16 0.00 0.00
7:52 am 07:52 Sunny 77 25 73 22.8 88 88 S 6 9 30.00 1016 10 16 0.00 0.00
8:52 am 08:52 Sunny 81 27.2 73 22.8 77 77 SSW 9 15 30.01 1016 10 16 0.00 0.00
9:52 am 09:52 Sunny 84 28.9 73 22.8 70 70 S 6 9 30.01 1016 10 16 0.00 0.00
10:52 am 10:52 Sunny 88 31.1 73 22.8 61 61 VRB 6 9 30.01 1016 10 16 0.00 0.00
11:52 am 11:52 Partly Cloudy 88 31.1 72 22.2 59 59 VRB 6 9 30.01 1016 10 16 0.00 0.00
12:52 pm 12:52 Sunny 91 32.8 71 21.7 52 52 S 8 13 29.99 1016 10 16 0.00 0.00
1:52 pm 13:52 Partly Cloudy 91 32.8 70 21.1 50 50 Calm 29.99 1016 10 16 0.00 0.00
2:52 pm 14:52 Partly Cloudy 91 32.8 70 21.1 50 50 SE 8 13 29.97 1015 10 16 0.00 0.00
3:52 pm 15:52 Partly Cloudy 89 31.7 71 21.7 55 55 VRB 7 11 29.96 1014 10 16 0.00 0.00
4:41 pm 16:41 Partly Cloudy with Nearby Thunderstorms 92 33.3 71 21.7 51 51 SW 8 13 29.90 1012 10 16 0.00 0.00
4:52 pm 16:52 Partly Cloudy with Thunderstorms 91 32.8 72 22.2 54 54 SW 9 15 29.95 1014 10 16 0.00 0.00
5:11 pm 17:11 Sunny with Nearby Thunderstorms 85 29.4 71 21.7 63 63 ESE 17 28 29.93 1014 10 16 0.00 0.00
5:29 pm 17:29 Mostly Sunny 85 29.4 71 21.7 63 63 ESE 13 20 29.92 1013 10 16 0.00 0.00
5:52 pm 17:52 Sunny 87 30.6 69 20.6 55 55 ESE 13 20 29.95 1014 10 16 0.00 0.00
6:52 pm 18:52 Sunny 90 32.2 71 21.7 54 54 SE 9 15 29.94 1014 10 16 0.00 0.00
7:52 pm 19:52 Sunny 86 30 73 22.8 65 65 SSE 10 17 29.94 1014 10 16 0.00 0.00
8:52 pm 20:52 Clear 84 28.9 73 22.8 70 70 SSE 10 17 29.95 1014 10 16 0.00 0.00
9:52 pm 21:52 Clear 83 28.3 73 22.8 72 72 SSE 10 17 29.96 1014 10 16 0.00 0.00
10:52 pm 22:52 Clear 82 27.8 72 22.2 72 72 SSE 10 17 29.96 1015 10 16 0.00 0.00
11:52 pm 23:52 Clear 81 27.2 72 22.2 74 74 SSE 12 19 29.97 1015 10 16 0.00 0.00

Powered by AerisWeather